Regional Weather Roundup
Issued by NWS Northern Indiana

Home | Current Version | Previous Version | Text Only | Print | Product List | Glossary Off
Versions: 1 2 3 4 5 6 7 8 9 10 11 12 13 14 15 16 17 18 19 20 21 22 23 24 25 26 27 28 29 30 31 32 33 34 35 36 37 38 39 40 41 42 43 44 45 46 47 48 49 50

000
ASUS43 KIWX 160610
RWRIWX

KIWX WEATHER ROUNDUP
NATIONAL WEATHER SERVICE NORTHERN INDIANA
100 AM EST TUE JAN 16 2018

NOTE: "FAIR" INDICATES FEW OR NO CLOUDS BELOW 12,000 FEET WITH NO
SIGNIFICANT WEATHER AND/OR OBSTRUCTIONS TO VISIBILITY.

* THESE STATIONS ARE NOT UNDER NWS QUALITY CONTROL. THEY ALSO MAY NOT
  REPORT WEATHER SUCH AS PRECIPITATION OR FOG.

INZ001>027-160700-
NORTHERN INDIANA

CITY           SKY/WX    TMP DP  RH WIND       PRES   REMARKS
GARY*          LGT SNOW  10   3  75 SW8       30.36S WCI  -3
VALPARAISO     CLOUDY     6   1  80 SW9       30.35S HAZE    WCI  -8
6HR MIN TEMP:   5; 6HR MAX TEMP:  14;

MICHIGAN CITY* FLURRIES   5   1  85 SW8       30.35R WCI  -8
LAPORTE*       FAIR       3  -1  83 SW7       30.34S WCI  -9
6HR MIN TEMP:   3; 6HR MAX TEMP:  13;

KNOX*          FAIR       3  -2  78 SW9       30.37S WCI -11
SOUTH BEND     CLOUDY     3  -1  83 SW9       30.34S WCI -12
6HR MIN TEMP:   3; 6HR MAX TEMP:  15; 6HR PCP: TRACE;

GOSHEN         CLOUDY     5  -1  76 SW15G24   30.34S WCI -13
6HR MIN TEMP:   5; 6HR MAX TEMP:  17; 6HR PCP: TRACE;

MONTICELLO*    CLOUDY     3  -3  74 W15G21    30.41S WCI -15
6HR MIN TEMP:   4; 6HR MAX TEMP:  10;

LOGANSPORT*    CLOUDY     5   0  78 W16       30.41S WCI -14
ROCHESTER*     MOCLDY     9   3  78 SW9G16    30.37S WCI  -5
WARSAW*        FAIR       5   0  78 SW8       30.35S WCI  -8
AUBURN*        FLURRIES   9   3  78 SW10      30.34S WCI  -6
FORT WAYNE     CLOUDY     7   1  76 W15G22    30.36S WCI -10
6HR MIN TEMP:   7; 6HR MAX TEMP:  23; 6HR PCP: TRACE;

HUNTINGTON*    CLOUDY     6   1  79 W10       30.37S WCI  -9
6HR MIN TEMP:   6; 6HR MAX TEMP:  17;

PERU/GRISSOM   CLOUDY     5   1  85 W13       30.38S WCI -12
6HR MIN TEMP:   5; 6HR MAX TEMP:  10; 6HR PCP: TRACE;

MARION*        CLOUDY     6   2  82 W14G20    30.39S WCI -10
6HR MIN TEMP: -17; 6HR MAX TEMP:  56;


$$
INZ028>050-160700-
CENTRAL INDIANA

CITY           SKY/WX    TMP DP  RH WIND       PRES   REMARKS
LAFAYETTE      FAIR       2  -3  80 W12       30.44S WCI -15
6HR MIN TEMP:   2; 6HR MAX TEMP:  11; 6HR PCP: TRACE;

MUNCIE*        CLOUDY     9   1  70 W13       30.38S WCI  -7
6HR MIN TEMP:   8; 6HR MAX TEMP:  22; 6HR PCP: TRACE;

INDIANAPOLIS   FAIR       2  -3  80 W9        30.43S WCI -13
6HR MIN TEMP:   1; 6HR MAX TEMP:  14;


$$
MIZ043>046-050>051-056>058-064>065-071>073-077>080-160700-
SOUTHWEST LOWER MICHIGAN

CITY           SKY/WX    TMP DP  RH WIND       PRES   REMARKS
BATTLE CREEK   LGT SNOW  12   8  84 SW10      30.27S FOG     WCI  -1
6HR MIN TEMP:  12; 6HR MAX TEMP:  21; 6HR PCP:  0.01;

BENTON HARBOR  LGT SNOW  11   6  81 S12       30.31S WCI  -3
6HR MIN TEMP:  11; 6HR MAX TEMP:  22; 6HR PCP: TRACE;

COLDWATER*     FLURRIES  11   7  83 W9        30.28S WCI  -2
6HR MIN TEMP:  11; 6HR MAX TEMP:  22;

HILLSDALE*     CLOUDY    12   7  79 W7        30.25R WCI   2
HOLLAND        LGT SNOW  20  17  88 VRB5      30.26S FOG     WCI  13
6HR MIN TEMP:  19; 6HR MAX TEMP:  20; 6HR PCP:  0.03;

GRAND RAPIDS   LGT SNOW  17  13  84 NE5       30.27S FOG     WCI  10
6HR MIN TEMP:  17; 6HR MAX TEMP:  19; 6HR PCP:  0.01;

KALAMAZOO      CLOUDY    12   7  80 SW12      30.28S WCI  -2
6HR MIN TEMP:  12; 6HR MAX TEMP:  22; 6HR PCP: TRACE;

STURGIS*       FLURRIES  10   5  79 SW13      30.30R WCI  -5
6HR MIN TEMP:  10; 6HR MAX TEMP:  23;

THREE RIVERS*  FLURRIES  10   5  80 SW7       30.31S WCI  -1
6HR MIN TEMP:  10; 6HR MAX TEMP:  23;


$$
OHZ001>008-015>018-024>025-160700-
NORTHWEST OHIO

CITY           SKY/WX    TMP DP  RH WIND       PRES   REMARKS
WAUSEON*       CLOUDY    14  12  92 SW13      30.31R WCI   0
DEFIANCE       FLURRIES   9   3  77 SW12      30.34S WCI  -6
6HR MIN TEMP:   9; 6HR MAX TEMP:  23; 6HR PCP: TRACE;

FINDLAY        MIX PCPN  12   5  73 W21       30.33S WCI  -7
6HR MIN TEMP:  12; 6HR MAX TEMP:  25; 6HR PCP: TRACE;

TOLEDO EXPRESS CLOUDY    13  10  88 W15       30.31S WCI  -3
6HR MIN TEMP:  13; 6HR MAX TEMP:  23; 6HR PCP: TRACE;

TOLEDO METCALF CLOUDY    15   9  76 SW18G24   30.32R WCI  -2
6HR MIN TEMP:  15; 6HR MAX TEMP:  24; 6HR PCP: TRACE;

LIMA           CLOUDY    10   4  76 W17       30.34R WCI  -8
6HR MIN TEMP:  10; 6HR MAX TEMP:  24; 6HR PCP: TRACE;


$$
AND FOR LAKE MICHIGAN COASTAL AND OPEN LAKE BUOY OBSERVATIONS

STATION/POSITION TEMP    WIND        PRES    VSBY  WAVE
                 AIR SEA DIR/SP/G                  HT/PER
                 (F)     (DEG/KT/KT) (MB)    (MI)  (FT/S)
CALUMET HARBOR           230/ 12/ 16 1026.6S
MICHIGAN CITY            190/ 13/ 15   N/A
BURNS HARBOR       9     230/ 11/ 17 1027.8
SAINT JOSEPH      12     180/  7/ 14 1026.4

$$
&&




USA.gov is the U.S. government's official web portal to all federal, state and local government web resources and services.